Location: Capvern
(43.1036°N, 0.3160°E)
Time: 09:25:38
(UTC+00:00)

ISS - Visible Passes

Search period start: 28 November 2022 00:00
Search period end: 08 December 2022 00:00
Orbit: 411 x 420 km, 51.6° (Epoch: 28 November)

Date Brightness Start Highest point End Pass type
(mag) Time Alt. Az. Time Alt. Az. Time Alt. Az.
28 Nov -1.9 17:39:02 10° NW 17:41:27 18° N 17:42:30 16° NNE visible
29 Nov -1.6 18:27:13 10° NW 18:28:40 19° NNW 18:28:40 19° NNW visible
30 Nov -2.2 17:38:32 10° NW 17:41:11 21° NNE 17:41:59 19° NNE visible
01 Dec -2.2 18:26:21 10° NW 18:28:14 27° NNW 18:28:14 27° NNW visible
02 Dec -2.8 17:37:39 10° NW 17:40:40 31° NNE 17:41:40 26° NE visible
02 Dec -0.4 19:14:17 10° WNW 19:14:34 12° WNW 19:14:34 12° WNW visible
03 Dec -3.2 18:25:25 10° WNW 18:28:06 55° WNW 18:28:06 55° WNW visible
04 Dec -3.8 17:36:37 10° NW 17:39:55 60° NNE 17:41:49 22° ESE visible
04 Dec -0.5 19:13:58 10° W 19:14:45 14° W 19:14:45 14° W visible
05 Dec -2.0 18:24:40 10° WNW 18:27:39 31° SW 18:28:43 25° S visible
06 Dec -3.0 17:35:36 10° WNW 17:38:52 54° SW 17:42:06 10° SE visible
07 Dec -0.5 18:24:53 10° WSW 18:26:13 12° SW 18:27:34 10° SSW visible
